{"data":{"norad_id":65299,"epoch":"2026-05-25T03:35:32.778816Z","epoch_age_seconds":76189,"freshness":"FRESH","line1":"1 65299U 25185C   26145.14968494  .00001653  00000+0  22180-3 0  9995","line2":"2 65299  97.9600 228.9077 0014753 155.1642 205.0283 14.80626166 40445","mean_motion":14.80626166,"eccentricity":0.0014753,"inclination_deg":97.96,"raan_deg":228.9077,"arg_perigee_deg":155.1642,"mean_anomaly_deg":205.0283,"bstar":0.0002218,"rev_number":4044,"period_min":97.256149666073,"perigee_km":617.01313708426,"apogee_km":637.68352209775,"semimajor_km":7005.485329591,"source":"CELESTRAK","updated_at":"2026-05-25T13:38:05.297522Z"}}